[[{"header":{"parameterUnit":"m.s-1","parameterCategory":1,"la1":30.2991,"la2":30.254,"lo1":-89.0895,"lo2":-89.0444,"dy":0.0017,"dx":0.0017,"nx":28,"ny":28,"refTime":"2024-02-13T09:00:00:Z","depth":0,"parameterNumber":2,"parameterNumberName":"U-component_of_WINDS"},"data":[0,0,0,0,0,0,0,0,0,0,0,0,0,0,0,0,0,0,0,0,0,0,0,0,0,0,0,0,0,0,0,0,0,0,0,0,0,0,0,0,0,0,0,0,0,0,0,0,0,0,0,0,0,0,0,0,0,0,3.8289,3.8289,0,3.8356,3.8357,3.8357,3.8336,3.8334,3.8333,3.8332,3.8398,3.8401,3.8404,0,0,0,0,0,0,0,0,0,0,0,0,0,3.8141,3.8144,3.8289,3.8289,3.829,3.8356,3.8357,3.8357,3.8336,3.8334,3.8333,3.8331,3.8397,3.8401,3.8405,0,0,0,0,0,0,0,0,0,0,0,0,0,3.8206,3.8145,3.8288,3.8287,3.8288,3.8355,3.8357,3.8358,3.8336,3.8334,3.8332,3.833,3.8396,3.8401,3.8405,3.8477,0,0,3.842,3.8422,0,0,0,0,0,0,0,0,3.8202,3.8212,3.8287,3.8288,3.8288,3.8335,3.8329,3.8398,3.8337,3.8318,3.8332,3.8329,3.8379,3.8385,3.8402,3.848,3.8483,3.842,3.8423,3.8425,3.8426,0,0,0,0,0,0,0,3.8198,3.8209,3.8315,3.8288,3.8289,3.8283,3.829,3.8342,3.836,3.8319,3.8318,3.8326,3.8379,3.8398,3.8404,3.8484,3.842,3.8424,3.8427,3.8429,3.8625,3.8628,0,0,0,0,0,0,3.8193,3.8205,3.8313,3.8317,3.8239,3.8288,3.8296,3.8322,3.8359,3.8363,3.8328,3.8325,3.8391,3.8398,3.8406,3.8493,3.8425,3.8429,3.8432,3.8623,3.8626,3.8629,0,0,0,0,0,0,3.819,3.8203,3.831,3.8261,3.8274,3.8293,3.8323,3.8325,3.8343,3.8366,3.8369,3.8344,3.8389,3.8399,3.846,3.8495,3.8431,3.8435,3.862,3.8624,3.8627,3.8668,0,0,0,0,0,0,3.8186,3.8202,3.823,3.8262,3.8277,3.8364,3.8325,3.8328,3.8352,3.8349,3.8381,3.8385,3.8388,3.8453,3.8465,3.85,3.8439,3.8617,3.8622,3.8626,3.8663,3.8672,3.868,0,0,0,0,0,3.8181,3.8238,3.8231,3.8244,3.8312,3.8366,3.8374,3.8378,3.8355,3.8383,3.8397,3.8384,3.8489,3.8459,3.8472,3.851,3.8615,3.8621,3.8626,3.8659,3.867,3.868,0,0,0,0,0,0,3.8208,3.8242,3.8235,3.8304,3.8332,3.8362,3.8397,3.8389,3.8424,3.842,3.8422,3.843,3.8492,3.8507,3.8473,3.8582,3.8549,3.8557,3.857,3.858,3.8589,3.8584,3.8443,0,0,0,0,0,3.8223,3.8264,3.8291,3.8349,3.8364,3.8378,3.8402,3.8402,3.8431,3.8443,3.8462,3.849,3.853,3.8556,3.8594,3.8665,3.8672,3.8698,3.8706,3.8713,3.872,3.876,3.8771,3.8647,3.8646,3.8646,0,0,3.8252,3.8275,3.8301,3.8355,3.8377,3.842,3.8388,3.8434,3.8466,3.845,3.8509,3.8524,3.8556,3.8622,3.8653,3.8637,3.8756,3.872,3.8725,3.8728,3.8767,3.8778,3.8789,3.865,3.865,3.8649,0,0,3.8328,3.835,3.8401,3.8424,3.8458,3.8468,3.848,3.8512,3.8521,3.8581,3.857,3.8607,3.8675,3.8699,3.872,3.8806,3.8795,3.8818,3.8862,3.8901,3.891,3.8919,3.8951,3.8962,3.8825,3.8825,3.8826,0,3.836,3.8425,3.8428,3.8476,3.8501,3.8489,3.8541,3.8563,3.8607,3.8624,3.8606,3.8692,3.8713,3.8785,3.8807,3.8824,3.8838,3.8814,3.8909,3.8918,3.8926,3.8956,3.8968,3.8828,3.8828,3.8827,3.8827,0,3.8463,3.8508,3.8545,3.859,3.8618,3.8668,3.8679,3.8708,3.8706,3.8717,3.8778,3.8803,3.8846,3.8863,3.8861,3.8936,3.8925,3.8908,3.8875,3.894,3.8969,3.898,3.8832,3.8831,3.883,3.8829,0,0,3.8557,3.8604,3.8618,3.8639,3.8676,3.8711,3.876,3.8803,3.8828,3.8859,3.8901,3.8959,3.8944,3.8968,3.8969,3.9003,3.9071,3.8982,3.8982,3.8998,3.9155,3.9168,3.9182,3.9064,3.9066,3.9068,3.9153,0,3.8637,3.8724,3.873,3.8809,3.8851,3.8841,3.8884,3.8912,3.8924,3.8961,3.8974,3.9016,3.8993,3.9007,3.9041,3.9056,3.9103,3.905,3.9103,3.9105,3.9096,3.9196,3.921,3.9289,3.9164,3.9166,3.9167,0,3.8741,3.8777,3.8861,3.8893,3.8911,3.895,3.899,3.9026,3.9057,3.9064,3.9091,3.9088,3.9139,3.9104,3.9174,3.9138,3.916,3.9171,3.9174,3.9179,3.914,3.9204,3.9314,3.9326,3.9184,3.9183,3.9182,0,3.8802,3.8871,3.8931,3.8948,3.8988,3.9015,3.9033,3.9062,3.9088,3.9123,3.914,3.918,3.9203,3.9234,3.9242,3.9215,3.9312,3.9278,3.9319,3.9319,3.934,3.9338,3.9454,3.9354,3.9354,3.9353,3.9353,0,3.8891,3.8942,3.8959,3.8995,3.9053,3.9059,3.9116,3.9132,3.9158,3.9198,3.9191,3.9228,3.9236,3.9275,3.9281,3.9339,3.9348,3.9355,3.9356,3.9356,3.9355,3.9371,3.9365,3.9356,3.9356,3.9355,3.9355,0,3.8969,3.8982,3.9046,3.9079,3.9088,3.9129,3.9157,3.9192,3.9204,3.9254,3.9266,3.9284,3.933,3.9341,3.9394,3.9399,3.9467,3.9463,3.9457,3.9457,3.9497,3.9494,3.9628,3.9646,3.9533,3.9534,3.9535,0,3.9024,3.9064,3.9102,3.9128,3.9147,3.9189,3.9216,3.9223,3.9251,3.9291,3.9321,3.9366,3.9402,3.9475,3.9493,3.9534,3.9531,3.9575,3.9537,3.9536,3.9533,3.953,3.9535,3.9583,3.9584,3.9585,3.9586,0,3.9122,3.9127,3.9166,3.9208,3.924,3.9273,3.9305,3.9327,3.9338,3.937,3.9417,3.9445,3.9501,3.9545,3.9587,3.9605,3.9598,3.9598,3.9609,3.961,3.9605,3.9609,3.9477,3.9594,3.9593,3.9593,3.9592,3.9592,3.9191,3.9227,3.9259,3.9303,3.9327,3.9357,3.9392,3.9409,3.9448,3.9495,3.9497,3.9548,3.9579,3.9634,3.9655,3.9695,3.9681,3.9698,3.9702,3.9707,3.9711,3.9598,3.9702,3.9702,3.9702,3.9701,3.9701,0,3.9289,3.931,3.935,3.9395,3.943,3.9421,3.9455,3.9485,3.953,3.956,3.9596,3.965,3.9694,3.9716,3.9759,3.9787,3.9785,3.9798,3.9796,3.9801,3.972,3.9706,3.9799,3.9799,3.9799,3.9799,3.9799,3.9799,3.9344,3.9404,3.9413,3.9485,3.9504,3.9555,3.9576,3.9604,3.9628,3.9689,3.9725,3.9739,3.9766,3.9812,3.9851,3.9857,3.9873,3.9888,3.9892,3.9816,3.9806,3.9797,3.9783,3.9892,3.9892,3.997,3.997,3.9971]},{"header":{"parameterUnit":"m.s-1","parameterCategory":1,"la1":30.2991,"la2":30.254,"lo1":-89.0895,"lo2":-89.0444,"dy":0.0017,"dx":0.0017,"nx":28,"ny":28,"refTime":"2024-02-13T09:00:00:Z","depth":0,"parameterNumber":3,"parameterNumberName":"V-component_of_WINDS"},"data":[0,0,0,0,0,0,0,0,0,0,0,0,0,0,0,0,0,0,0,0,0,0,0,0,0,0,0,0,0,0,0,0,0,0,0,0,0,0,0,0,0,0,0,0,0,0,0,0,0,0,0,0,0,0,0,0,0,0,-5.5754,-5.5755,0,-5.5867,-5.5868,-5.5869,-5.5837,-5.5834,-5.5832,-5.583,-5.5942,-5.5947,-5.5952,0,0,0,0,0,0,0,0,0,0,0,0,0,-5.551,-5.5514,-5.5754,-5.5755,-5.5757,-5.5866,-5.5868,-5.5869,-5.5837,-5.5834,-5.5831,-5.5829,-5.594,-5.5946,-5.5953,0,0,0,0,0,0,0,0,0,0,0,0,0,-5.5618,-5.5516,-5.5754,-5.5754,-5.5755,-5.5866,-5.5868,-5.587,-5.5838,-5.5834,-5.5831,-5.5827,-5.5938,-5.5946,-5.5953,-5.607,0,0,-5.5977,-5.598,0,0,0,0,0,0,0,0,-5.5612,-5.5627,-5.5753,-5.5754,-5.5756,-5.5834,-5.5823,-5.5937,-5.5838,-5.5806,-5.583,-5.5826,-5.5909,-5.5919,-5.5947,-5.6075,-5.608,-5.5978,-5.5982,-5.5986,-5.5988,0,0,0,0,0,0,0,-5.5605,-5.5622,-5.5798,-5.5754,-5.5756,-5.5748,-5.5759,-5.5844,-5.5875,-5.5809,-5.5807,-5.5821,-5.5909,-5.594,-5.595,-5.6082,-5.5977,-5.5984,-5.5989,-5.5992,-5.6312,-5.6315,0,0,0,0,0,0,-5.5596,-5.5616,-5.5795,-5.5802,-5.5674,-5.5755,-5.5768,-5.5812,-5.5874,-5.5881,-5.5823,-5.5819,-5.5928,-5.5941,-5.5953,-5.6094,-5.5986,-5.5993,-5.5997,-5.6308,-5.6313,-5.6317,0,0,0,0,0,0,-5.5591,-5.5613,-5.579,-5.5709,-5.5731,-5.5763,-5.5813,-5.5816,-5.5847,-5.5886,-5.5891,-5.585,-5.5926,-5.5943,-5.6042,-5.6098,-5.5996,-5.6003,-5.6303,-5.6309,-5.6315,-5.6377,0,0,0,0,0,0,-5.5584,-5.5611,-5.5656,-5.571,-5.5735,-5.5877,-5.5816,-5.5821,-5.5861,-5.5856,-5.5911,-5.5917,-5.5925,-5.603,-5.6049,-5.6106,-5.6009,-5.6298,-5.6306,-5.6313,-5.637,-5.6384,-5.6396,0,0,0,0,0,-5.5576,-5.5668,-5.5658,-5.568,-5.5792,-5.5881,-5.5895,-5.5903,-5.5866,-5.5911,-5.5936,-5.5915,-5.6089,-5.6041,-5.6062,-5.6122,-5.6295,-5.6304,-5.6312,-5.6364,-5.6381,-5.6396,0,0,0,0,0,0,-5.5619,-5.5675,-5.5665,-5.5778,-5.5825,-5.5875,-5.5932,-5.5921,-5.5978,-5.5971,-5.5977,-5.599,-5.6092,-5.6117,-5.6062,-5.6238,-5.6186,-5.62,-5.6218,-5.6235,-5.6248,-5.6239,-5.6016,0,0,0,0,0,-5.5642,-5.571,-5.5755,-5.585,-5.5874,-5.59,-5.5938,-5.5941,-5.5989,-5.6008,-5.604,-5.6088,-5.6153,-5.6195,-5.6257,-5.6374,-5.6385,-5.6425,-5.6438,-5.6449,-5.646,-5.6524,-5.6542,-5.6345,-5.6345,-5.6345,0,0,-5.5689,-5.5728,-5.5771,-5.586,-5.5896,-5.5966,-5.5916,-5.5992,-5.6044,-5.602,-5.6115,-5.6141,-5.6194,-5.6302,-5.6351,-5.6326,-5.6517,-5.646,-5.6468,-5.6474,-5.6535,-5.6553,-5.657,-5.6351,-5.635,-5.6349,0,0,-5.5811,-5.5848,-5.5931,-5.597,-5.6026,-5.6043,-5.6063,-5.6116,-5.6132,-5.6228,-5.6212,-5.6273,-5.6385,-5.6424,-5.6458,-5.6596,-5.658,-5.6616,-5.6684,-5.6746,-5.6762,-5.6775,-5.6824,-5.6842,-5.6627,-5.6627,-5.6628,0,-5.5862,-5.5968,-5.5975,-5.6053,-5.6093,-5.6076,-5.616,-5.6197,-5.627,-5.6298,-5.6269,-5.641,-5.6444,-5.6562,-5.6596,-5.6624,-5.6647,-5.6609,-5.6759,-5.6773,-5.6786,-5.6833,-5.6851,-5.6632,-5.6631,-5.6631,-5.663,0,-5.6028,-5.6101,-5.6162,-5.6235,-5.6281,-5.6362,-5.6382,-5.6428,-5.6426,-5.6446,-5.6544,-5.6585,-5.6655,-5.6684,-5.6682,-5.6801,-5.6784,-5.6757,-5.6704,-5.6808,-5.6853,-5.6871,-5.6637,-5.6636,-5.6635,-5.6634,0,0,-5.6179,-5.6257,-5.6279,-5.6312,-5.6374,-5.643,-5.651,-5.658,-5.6619,-5.6671,-5.6738,-5.6834,-5.681,-5.6849,-5.6852,-5.6906,-5.7013,-5.6873,-5.6874,-5.6897,-5.7147,-5.7166,-5.7187,-5.7003,-5.7007,-5.7009,-5.7142,0,-5.6306,-5.6448,-5.6458,-5.6585,-5.6653,-5.6638,-5.6708,-5.6753,-5.6774,-5.6834,-5.6856,-5.6924,-5.6887,-5.6911,-5.6964,-5.6989,-5.7063,-5.698,-5.7065,-5.7068,-5.7051,-5.721,-5.723,-5.7353,-5.7159,-5.7162,-5.7164,0,-5.6473,-5.6531,-5.6666,-5.6719,-5.6748,-5.681,-5.6876,-5.6933,-5.6984,-5.6995,-5.704,-5.7036,-5.7117,-5.7063,-5.7175,-5.7118,-5.7153,-5.7171,-5.7176,-5.7183,-5.7122,-5.7221,-5.7393,-5.7411,-5.7192,-5.719,-5.7188,0,-5.657,-5.6681,-5.6777,-5.6805,-5.687,-5.6914,-5.6943,-5.6991,-5.7032,-5.7089,-5.7116,-5.7182,-5.7217,-5.7267,-5.7281,-5.724,-5.7393,-5.7339,-5.7404,-5.7403,-5.7436,-5.7433,-5.7615,-5.746,-5.7459,-5.7459,-5.7459,0,-5.671,-5.6793,-5.6821,-5.6879,-5.6972,-5.6983,-5.7074,-5.7099,-5.7142,-5.7205,-5.7196,-5.7255,-5.727,-5.7331,-5.7342,-5.7433,-5.745,-5.746,-5.7462,-5.7461,-5.746,-5.7484,-5.7475,-5.7464,-5.7463,-5.7462,-5.7461,0,-5.6833,-5.6855,-5.6958,-5.7011,-5.7026,-5.7092,-5.7137,-5.7193,-5.7213,-5.7293,-5.7312,-5.7343,-5.7415,-5.7434,-5.752,-5.7527,-5.7635,-5.7628,-5.7618,-5.7617,-5.768,-5.7674,-5.7883,-5.7911,-5.7738,-5.774,-5.7741,0,-5.6921,-5.6984,-5.7045,-5.7087,-5.7118,-5.7186,-5.7229,-5.7242,-5.7287,-5.735,-5.7399,-5.747,-5.7528,-5.7644,-5.7673,-5.7739,-5.7734,-5.7803,-5.7744,-5.7741,-5.7735,-5.7731,-5.7737,-5.7814,-5.7816,-5.7817,-5.7818,0,-5.7074,-5.7083,-5.7145,-5.7212,-5.7264,-5.7317,-5.7368,-5.7402,-5.7423,-5.7473,-5.7548,-5.7593,-5.7681,-5.7752,-5.7819,-5.7848,-5.7837,-5.7837,-5.7855,-5.7854,-5.7845,-5.7851,-5.7648,-5.7832,-5.7831,-5.783,-5.7829,-5.7828,-5.7182,-5.7238,-5.729,-5.736,-5.74,-5.7448,-5.7503,-5.7531,-5.7593,-5.7667,-5.7671,-5.7752,-5.7802,-5.789,-5.7923,-5.7986,-5.7965,-5.7992,-5.7998,-5.8005,-5.801,-5.7836,-5.7998,-5.7998,-5.7997,-5.7997,-5.7997,0,-5.7335,-5.7368,-5.7433,-5.7505,-5.756,-5.7546,-5.7602,-5.7649,-5.772,-5.7768,-5.7826,-5.7911,-5.7981,-5.8016,-5.8084,-5.8128,-5.8125,-5.8145,-5.8142,-5.8149,-5.8025,-5.8002,-5.8147,-5.8147,-5.8147,-5.8147,-5.8147,-5.8147,-5.7421,-5.7515,-5.753,-5.7644,-5.7676,-5.7756,-5.7789,-5.7833,-5.7871,-5.7968,-5.8026,-5.8049,-5.8092,-5.8164,-5.8226,-5.8235,-5.826,-5.8284,-5.829,-5.8173,-5.8157,-5.8143,-5.8121,-5.8289,-5.8289,-5.8408,-5.8409,-5.841]}]]